| time (UTC) | temp C | wind direction | speed KPH | gust KPH | rain 1hr cm | rain 24hr cm | rain mn cm | humidity % | barometer mb |
| 20260905200007 | 33 | 50 | 3.2 | 11.3 | 0.00 | 0.00 | 0.00 | 21 | 1018.2 |
| 20260905195506 | 33 | 53 | 1.6 | 14.5 | 0.00 | 0.00 | 0.00 | 21 | 1018.2 |
| 20260905195009 | 33 | 216 | 3.2 | 14.5 | 0.00 | 0.00 | 0.00 | 21 | 1018.2 |
| 20260905194524 | 32 | 57 | 3.2 | 9.7 | 0.00 | 0.00 | 0.00 | 21 | 1018.3 |
| 20260905194013 | 32 | 69 | 3.2 | 9.7 | 0.00 | 0.00 | 0.00 | 1018.4 | |
| 20260905193512 | 32 | 350 | 3.2 | 11.3 | 0.00 | 0.00 | 0.00 | 1018.4 | |
| 20260905193003 | 32 | 90 | 4.8 | 14.5 | 0.00 | 0.00 | 0.00 | 1018.5 | |
| 20260905192504 | 32 | 338 | 4.8 | 14.5 | 0.00 | 0.00 | 0.00 | 21 | 1018.5 |
| 20260905192005 | 32 | 99 | 6.4 | 16.1 | 0.00 | 0.00 | 0.00 | 21 | 1018.5 |
| 20260905191510 | 32 | 69 | 4.8 | 16.1 | 0.00 | 0.00 | 0.00 | 22 | 1018.5 |
| 20260905191010 | 32 | 15 | 6.4 | 14.5 | 0.00 | 0.00 | 0.00 | 22 | 1018.5 |
| 20260905190511 | 32 | 59 | 4.8 | 14.5 | 0.00 | 0.00 | 0.00 | 23 | 1018.5 |
| 20260905190025 | 32 | 40 | 6.4 | 14.5 | 0.00 | 0.00 | 0.00 | 23 | 1018.5 |
| 20260905185514 | 32 | 41 | 3.2 | 14.5 | 0.00 | 0.00 | 0.00 | 22 | 1018.6 |
| 20260905185005 | 32 | 9 | 3.2 | 9.7 | 0.00 | 0.00 | 0.00 | 24 | 1018.6 |
| 20260905184509 | 32 | 67 | 3.2 | 8.0 | 0.00 | 0.00 | 0.00 | 25 | 1018.7 |
| 20260905184010 | 31 | 136 | 1.6 | 12.9 | 0.00 | 0.00 | 0.00 | 26 | 1018.8 |
| 20260905183506 | 31 | 22 | 4.8 | 12.9 | 0.00 | 0.00 | 0.00 | 25 | 1018.9 |
| 20260905183017 | 31 | 44 | 3.2 | 11.3 | 0.00 | 0.00 | 0.00 | 25 | 1019.0 |
| 20260905182512 | 31 | 68 | 3.2 | 6.4 | 0.00 | 0.00 | 0.00 | 26 | 1019.1 |
| 20260905182016 | 31 | 54 | 3.2 | 8.0 | 0.00 | 0.00 | 0.00 | 25 | 1019.1 |
| 20260905181529 | 31 | 52 | 4.8 | 9.7 | 0.00 | 0.00 | 0.00 | 25 | 1019.2 |
| 20260905181004 | 31 | 86 | 4.8 | 8.0 | 0.00 | 0.00 | 0.00 | 24 | 1019.2 |
| 20260905180504 | 30 | 117 | 1.6 | 12.9 | 0.00 | 0.00 | 0.00 | 26 | 1019.2 |
| 20260905180010 | 30 | 61 | 3.2 | 12.9 | 0.00 | 0.00 | 0.00 | 27 | 1019.2 |
| 20260905175507 | 30 | 51 | 3.2 | 11.3 | 0.00 | 0.00 | 0.00 | 26 | 1019.2 |
| 20260905175012 | 30 | 54 | 6.4 | 11.3 | 0.00 | 0.00 | 0.00 | 25 | 1019.3 |
| 20260905174524 | 30 | 76 | 3.2 | 9.7 | 0.00 | 0.00 | 0.00 | 25 | 1019.3 |
| 20260905174016 | 30 | 60 | 1.6 | 11.3 | 0.00 | 0.00 | 0.00 | 27 | 1019.3 |
| 20260905173516 | 30 | 27 | 4.8 | 11.3 | 0.00 | 0.00 | 0.00 | 27 | 1019.3 |
| 20260905173006 | 30 | 42 | 1.6 | 6.4 | 0.00 | 0.00 | 0.00 | 29 | 1019.3 |
| 20260905172505 | 30 | 95 | 1.6 | 9.7 | 0.00 | 0.00 | 0.00 | 30 | 1019.3 |
| 20260905172008 | 29 | 62 | 1.6 | 11.3 | 0.00 | 0.00 | 0.00 | 30 | 1019.3 |
| 20260905171525 | 30 | 40 | 3.2 | 11.3 | 0.00 | 0.00 | 0.00 | 29 | 1019.2 |
| 20260905171013 | 30 | 41 | 3.2 | 9.7 | 0.00 | 0.00 | 0.00 | 30 | 1019.0 |
| 20260905170511 | 30 | 26 | 1.6 | 9.7 | 0.00 | 0.00 | 0.00 | 30 | 1018.9 |
| 20260905170029 | 30 | 67 | 1.6 | 12.9 | 0.00 | 0.00 | 0.00 | 29 | 1018.9 |
| 20260905165520 | 29 | 52 | 3.2 | 12.9 | 0.00 | 0.00 | 0.00 | 29 | 1019.0 |
| 20260905165008 | 29 | 53 | 4.8 | 11.3 | 0.00 | 0.00 | 0.00 | 30 | 1019.0 |
| 20260905164508 | 29 | 52 | 1.6 | 11.3 | 0.00 | 0.00 | 0.00 | 30 | 1019.0 |
| 20260905164009 | 29 | 130 | 3.2 | 12.9 | 0.00 | 0.00 | 0.00 | 31 | 1019.0 |
| 20260905163513 | 29 | 21 | 6.4 | 11.3 | 0.00 | 0.00 | 0.00 | 30 | 1018.9 |
| 20260905163031 | 29 | 79 | 1.6 | 6.4 | 0.00 | 0.00 | 0.00 | 30 | 1018.9 |
| 20260905162516 | 29 | 67 | 1.6 | 4.8 | 0.00 | 0.00 | 0.00 | 29 | 1018.8 |
| 20260905162016 | 28 | 15 | 1.6 | 8.0 | 0.00 | 0.00 | 0.00 | 31 | 1018.8 |
| 20260905161533 | 28 | 51 | 4.8 | 8.0 | 0.00 | 0.00 | 0.00 | 33 | 1018.9 |
| 20260905161003 | 28 | 43 | 1.6 | 9.7 | 0.00 | 0.00 | 0.00 | 38 | 1018.9 |
| 20260905160507 | 28 | 67 | 4.8 | 9.7 | 0.00 | 0.00 | 0.00 | 38 | 1018.9 |
| 20260905160015 | 27 | 337 | 1.6 | 4.8 | 0.00 | 0.00 | 0.00 | 35 | 1018.9 |
| 20260905155512 | 27 | 78 | 1.6 | 4.8 | 0.00 | 0.00 | 0.00 | 38 | 1018.9 |
| 20260905155014 | 26 | 24 | 1.6 | 4.8 | 0.00 | 0.00 | 0.00 | 39 | 1018.9 |
| 20260905154524 | 26 | 62 | 1.6 | 3.2 | 0.00 | 0.00 | 0.00 | 39 | 1018.9 |
| 20260905154014 | 25 | 55 | 0.0 | 3.2 | 0.00 | 0.00 | 0.00 | 40 | 1018.8 |
| 20260905153518 | 25 | 41 | 0.0 | 3.2 | 0.00 | 0.00 | 0.00 | 46 | 1018.8 |
| 20260905153010 | 24 | 43 | 0.0 | 3.2 | 0.00 | 0.00 | 0.00 | 48 | 1018.8 |
| 20260905152507 | 23 | 120 | 0.0 | 3.2 | 0.00 | 0.00 | 0.00 | 47 | 1018.8 |
| 20260905152007 | 23 | 113 | 0.0 | 3.2 | 0.00 | 0.00 | 0.00 | 49 | 1018.8 |
| 20260905151520 | 23 | 138 | 0.0 | 3.2 | 0.00 | 0.00 | 0.00 | 47 | 1018.8 |
| 20260905151012 | 23 | 156 | 0.0 | 3.2 | 0.00 | 0.00 | 0.00 | 44 | 1018.8 |
| 20260905150515 | 23 | 169 | 0.0 | 3.2 | 0.00 | 0.00 | 0.00 | 43 | 1018.8 |
| 20260905150041 | 23 | 187 | 0.0 | 3.2 | 0.00 | 0.00 | 0.00 | 43 | 1018.8 |
| 20260905145517 | 22 | 113 | 0.0 | 3.2 | 0.00 | 0.00 | 0.00 | 46 | 1018.8 |
| 20260905145005 | 22 | 103 | 0.0 | 3.2 | 0.00 | 0.00 | 0.00 | 52 | 1018.8 |
| 20260905144517 | 21 | 117 | 0.0 | 3.2 | 0.00 | 0.00 | 0.00 | 49 | 1018.8 |
| 20260905144011 | 21 | 107 | 0.0 | 3.2 | 0.00 | 0.00 | 0.00 | 54 | 1018.8 |
| 20260905143510 | 20 | 106 | 1.6 | 3.2 | 0.00 | 0.00 | 0.00 | 53 | 1018.8 |
| 20260905143025 | 20 | 108 | 0.0 | 3.2 | 0.00 | 0.00 | 0.00 | 54 | 1018.9 |
| 20260905142513 | 19 | 108 | 0.0 | 3.2 | 0.00 | 0.00 | 0.00 | 55 | 1018.9 |
| 20260905142020 | 18 | 222 | 0.0 | 3.2 | 0.00 | 0.00 | 0.00 | 58 | 1018.9 |
| 20260905141535 | 18 | 236 | 0.0 | 3.2 | 0.00 | 0.00 | 0.00 | 59 | 1018.8 |
| 20260905141007 | 17 | 240 | 1.6 | 3.2 | 0.00 | 0.00 | 0.00 | 61 | 1018.8 |
| 20260905140510 | 16 | 221 | 0.0 | 3.2 | 0.00 | 0.00 | 0.00 | 62 | 1018.7 |
| 20260905140018 | 16 | 204 | 0.0 | 3.2 | 0.00 | 0.00 | 0.00 | 63 | 1018.7 |
| 20260905135512 | 16 | 204 | 0.0 | 3.2 | 0.00 | 0.00 | 0.00 | 63 | 1018.7 |
| 20260905135018 | 16 | 204 | 0.0 | 3.2 | 0.00 | 0.00 | 0.00 | 63 | 1018.7 |
| 20260905134531 | 16 | 199 | 0.0 | 3.2 | 0.00 | 0.00 | 0.00 | 66 | 1018.7 |
| 20260905134017 | 15 | 196 | 0.0 | 3.2 | 0.00 | 0.00 | 0.00 | 66 | 1018.7 |
| 20260905133515 | 15 | 194 | 0.0 | 3.2 | 0.00 | 0.00 | 0.00 | 65 | 1018.6 |
| 20260905133010 | 15 | 194 | 0.0 | 3.2 | 0.00 | 0.00 | 0.00 | 66 | 1018.7 |
| 20260905132510 | 15 | 194 | 0.0 | 3.2 | 0.00 | 0.00 | 0.00 | 65 | 1018.7 |
| 20260905132010 | 15 | 194 | 0.0 | 3.2 | 0.00 | 0.00 | 0.00 | 64 | 1018.6 |
| 20260905131535 | 15 | 194 | 0.0 | 3.2 | 0.00 | 0.00 | 0.00 | 64 | 1018.5 |
| 20260905131014 | 15 | 194 | 0.0 | 3.2 | 0.00 | 0.00 | 0.00 | 63 | 1018.5 |
| 20260905130515 | 14 | 195 | 0.0 | 3.2 | 0.00 | 0.00 | 0.00 | 62 | 1018.4 |
| 20260905130031 | 14 | 195 | 0.0 | 3.2 | 0.00 | 0.00 | 0.00 | 63 | 1018.4 |
| 20260905125517 | 14 | 193 | 0.0 | 3.2 | 0.00 | 0.00 | 0.00 | 63 | 1018.4 |
| 20260905125009 | 14 | 192 | 0.0 | 3.2 | 0.00 | 0.00 | 0.00 | 60 | 1018.2 |
| 20260905124515 | 14 | 192 | 0.0 | 3.2 | 0.00 | 0.00 | 0.00 | 63 | 1018.1 |
| 20260905124015 | 14 | 198 | 0.0 | 3.2 | 0.00 | 0.00 | 0.00 | 64 | 1018.0 |
| 20260905123512 | 14 | 198 | 0.0 | 3.2 | 0.00 | 0.00 | 0.00 | 64 | 1018.0 |
| 20260905123037 | 14 | 208 | 0.0 | 3.2 | 0.00 | 0.00 | 0.00 | 64 | 1017.9 |
| 20260905122515 | 14 | 208 | 0.0 | 3.2 | 0.00 | 0.00 | 0.00 | 64 | 1017.9 |
| 20260905122018 | 14 | 208 | 0.0 | 3.2 | 0.00 | 0.00 | 0.00 | 64 | 1017.9 |
| 20260905121509 | 14 | 217 | 0.0 | 3.2 | 0.00 | 0.00 | 0.00 | 64 | 1017.9 |
| 20260905121006 | 15 | 213 | 0.0 | 3.2 | 0.00 | 0.00 | 0.00 | 64 | 1017.9 |
| 20260905120507 | 15 | 213 | 0.0 | 3.2 | 0.00 | 0.00 | 0.00 | 63 | 1017.9 |
| 20260905120021 | 15 | 192 | 0.0 | 3.2 | 0.00 | 0.00 | 0.00 | 63 | 1017.9 |
| 20260905115505 | 15 | 193 | 0.0 | 3.2 | 0.00 | 0.00 | 0.00 | 63 | 1018.0 |
| 20260905115003 | 15 | 182 | 0.0 | 1.6 | 0.00 | 0.00 | 0.00 | 62 | 1018.0 |
| 20260905114514 | 15 | 191 | 0.0 | 3.2 | 0.00 | 0.00 | 0.00 | 61 | 1018.0 |
| 20260905114004 | 15 | 215 | 0.0 | 3.2 | 0.00 | 0.00 | 0.00 | 61 | 1018.0 |
| 20260905113507 | 15 | 215 | 0.0 | 3.2 | 0.00 | 0.00 | 0.00 | 60 | 1018.1 |
| 20260905113014 | 16 | 215 | 0.0 | 3.2 | 0.00 | 0.00 | 0.00 | 59 | 1018.1 |
| 20260905112508 | 16 | 215 | 0.0 | 3.2 | 0.00 | 0.00 | 0.00 | 58 | 1018.1 |
| 20260905112012 | 16 | 223 | 0.0 | 3.2 | 0.00 | 0.00 | 0.00 | 56 | 1018.1 |
| 20260905111504 | 16 | 223 | 0.0 | 3.2 | 0.00 | 0.00 | 0.00 | 56 | 1018.2 |
| 20260905111003 | 16 | 223 | 0.0 | 1.6 | 0.00 | 0.00 | 0.00 | 56 | 1018.3 |
| 20260905110505 | 17 | 227 | 0.0 | 3.2 | 0.00 | 0.00 | 0.00 | 54 | 1018.2 |
| 20260905110007 | 17 | 227 | 0.0 | 3.2 | 0.00 | 0.00 | 0.00 | 54 | 1018.2 |
| 20260905105508 | 17 | 227 | 0.0 | 3.2 | 0.00 | 0.00 | 0.00 | 53 | 1018.1 |
| 20260905105008 | 17 | 227 | 0.0 | 3.2 | 0.00 | 0.00 | 0.00 | 53 | 1018.0 |
| 20260905104518 | 18 | 350 | 0.0 | 4.8 | 0.00 | 0.00 | 0.00 | 52 | 1018.0 |
| 20260905104008 | 18 | 350 | 1.6 | 4.8 | 0.00 | 0.00 | 0.00 | 51 | 1018.0 |
| 20260905103504 | 18 | 291 | 0.0 | 3.2 | 0.00 | 0.00 | 0.00 | 49 | 1017.8 |
| 20260905103006 | 18 | 286 | 0.0 | 3.2 | 0.00 | 0.00 | 0.00 | 49 | 1017.8 |
| 20260905102504 | 18 | 288 | 0.0 | 3.2 | 0.00 | 0.00 | 0.00 | 48 | 1017.8 |
| 20260905102003 | 18 | 227 | 0.0 | 3.2 | 0.00 | 0.00 | 0.00 | 47 | 1017.8 |
| 20260905101514 | 18 | 264 | 0.0 | 3.2 | 0.00 | 0.00 | 0.00 | 47 | 1017.8 |
| 20260905101010 | 18 | 344 | 0.0 | 6.4 | 0.00 | 0.00 | 0.00 | 46 | 1017.7 |
| 20260905100510 | 18 | 252 | 1.6 | 6.4 | 0.00 | 0.00 | 0.00 | 45 | 1017.7 |
| 20260905100021 | 18 | 181 | 1.6 | 9.7 | 0.00 | 0.00 | 0.00 | 48 | 1017.7 |
| 20260905095503 | 17 | 198 | 1.6 | 9.7 | 0.00 | 0.00 | 0.00 | 50 | 1017.5 |
| 20260905095007 | 16 | 229 | 1.6 | 6.4 | 0.00 | 0.00 | 0.00 | 53 | 1017.5 |
| 20260905094506 | 16 | 188 | 1.6 | 3.2 | 0.00 | 0.00 | 0.00 | 55 | 1017.6 |
| 20260905094007 | 16 | 132 | 0.0 | 3.2 | 0.00 | 0.00 | 0.00 | 55 | 1017.5 |
| 20260905093509 | 16 | 118 | 0.0 | 3.2 | 0.00 | 0.00 | 0.00 | 55 | 1017.4 |
| 20260905093018 | 16 | 202 | 0.0 | 1.6 | 0.00 | 0.00 | 0.00 | 54 | 1017.3 |
| 20260905092511 | 16 | 203 | 0.0 | 3.2 | 0.00 | 0.00 | 0.00 | 54 | 1017.3 |
| 20260905092016 | 16 | 198 | 0.0 | 3.2 | 0.00 | 0.00 | 0.00 | 54 | 1017.2 |
| 20260905091506 | 16 | 170 | 0.0 | 3.2 | 0.00 | 0.00 | 0.00 | 53 | 1017.3 |
| 20260905091004 | 17 | 170 | 0.0 | 3.2 | 0.00 | 0.00 | 0.00 | 53 | 1017.3 |
| 20260905090012 | 17 | 185 | 0.0 | 3.2 | 0.00 | 0.00 | 0.00 | 52 | 1017.2 |
| 20260905085510 | 17 | 185 | 0.0 | 3.2 | 0.00 | 0.00 | 0.00 | 51 | 1017.1 |
| 20260905085009 | 17 | 183 | 0.0 | 3.2 | 0.00 | 0.00 | 0.00 | 52 | 1017.2 |
| 20260905084519 | 17 | 183 | 0.0 | 3.2 | 0.00 | 0.00 | 0.00 | 51 | 1017.1 |
| 20260905084012 | 17 | 183 | 0.0 | 3.2 | 0.00 | 0.00 | 0.00 | 51 | 1017.1 |
| 20260905083503 | 17 | 183 | 0.0 | 3.2 | 0.00 | 0.00 | 0.00 | 49 | 1017.1 |
| 20260905083009 | 17 | 183 | 0.0 | 3.2 | 0.00 | 0.00 | 0.00 | 49 | 1017.2 |
| 20260905082504 | 18 | 183 | 0.0 | 3.2 | 0.00 | 0.00 | 0.00 | 49 | 1017.2 |
| 20260905082009 | 18 | 186 | 0.0 | 3.2 | 0.00 | 0.00 | 0.00 | 49 | 1017.1 |
| 20260905081517 | 18 | 178 | 0.0 | 3.2 | 0.00 | 0.00 | 0.00 | 47 | 1017.1 |
| 20260905081009 | 18 | 159 | 0.0 | 3.2 | 0.00 | 0.00 | 0.00 | 47 | 1017.1 |
| 20260905080513 | 18 | 175 | 0.0 | 3.2 | 0.00 | 0.00 | 0.00 | 49 | 1017.1 |
| 20260905080023 | 18 | 174 | 0.0 | 3.2 | 0.00 | 0.00 | 0.00 | 48 | 1017.1 |
| 20260905075503 | 18 | 187 | 0.0 | 3.2 | 0.00 | 0.00 | 0.00 | 49 | 1017.1 |
| 20260905075004 | 18 | 169 | 0.0 | 3.2 | 0.00 | 0.00 | 0.00 | 49 | 1017.1 |
| 20260905074509 | 18 | 180 | 0.0 | 3.2 | 0.00 | 0.00 | 0.00 | 49 | 1017.1 |
| 20260905074008 | 18 | 108 | 0.0 | 3.2 | 0.00 | 0.00 | 0.00 | 49 | 1017.2 |
| 20260905073508 | 18 | 121 | 1.6 | 3.2 | 0.00 | 0.00 | 0.00 | 49 | 1017.1 |
| 20260905073023 | 18 | 191 | 1.6 | 4.8 | 0.00 | 0.00 | 0.00 | 47 | 1017.0 |
| 20260905072515 | 18 | 257 | 1.6 | 6.4 | 0.00 | 0.00 | 0.00 | 48 | 1017.0 |
| 20260905072011 | 18 | 236 | 0.0 | 6.4 | 0.00 | 0.00 | 0.00 | 49 | 1016.9 |
| 20260905071506 | 18 | 269 | 1.6 | 3.2 | 0.00 | 0.00 | 0.00 | 49 | 1017.0 |
| 20260905071003 | 18 | 219 | 0.0 | 3.2 | 0.00 | 0.00 | 0.00 | 50 | 1017.1 |
| 20260905070506 | 18 | 128 | 0.0 | 3.2 | 0.00 | 0.00 | 0.00 | 50 | 1017.1 |
| 20260905070016 | 18 | 123 | 0.0 | 3.2 | 0.00 | 0.00 | 0.00 | 49 | 1017.1 |
| 20260905065510 | 18 | 225 | 0.0 | 3.2 | 0.00 | 0.00 | 0.00 | 49 | 1017.2 |
| 20260905065014 | 18 | 232 | 0.0 | 3.2 | 0.00 | 0.00 | 0.00 | 48 | 1017.1 |
| 20260905064524 | 18 | 245 | 0.0 | 3.2 | 0.00 | 0.00 | 0.00 | 47 | 1017.1 |
| 20260905064012 | 18 | 213 | 0.0 | 3.2 | 0.00 | 0.00 | 0.00 | 48 | 1017.1 |
| 20260905063504 | 18 | 179 | 0.0 | 3.2 | 0.00 | 0.00 | 0.00 | 49 | 1017.2 |
| 20260905063008 | 18 | 198 | 0.0 | 3.2 | 0.00 | 0.00 | 0.00 | 49 | 1017.1 |
| 20260905062507 | 18 | 172 | 0.0 | 3.2 | 0.00 | 0.00 | 0.00 | 50 | 1017.1 |
| 20260905062007 | 18 | 164 | 0.0 | 3.2 | 0.00 | 0.00 | 0.00 | 49 | 1017.1 |
| 20260905061530 | 18 | 171 | 0.0 | 3.2 | 0.00 | 0.00 | 0.00 | 49 | 1017.0 |
| 20260905061011 | 19 | 171 | 0.0 | 3.2 | 0.00 | 0.00 | 0.00 | 48 | 1016.9 |
| 20260905060514 | 19 | 162 | 0.0 | 3.2 | 0.00 | 0.00 | 0.00 | 47 | 1016.9 |
| 20260905060046 | 20 | 157 | 0.0 | 3.2 | 0.00 | 0.00 | 0.00 | 47 | 1017.0 |
| 20260905055504 | 20 | 157 | 0.0 | 3.2 | 0.00 | 0.00 | 0.00 | 46 | 1016.9 |
| 20260905055006 | 20 | 157 | 0.0 | 3.2 | 0.00 | 0.00 | 0.00 | 46 | 1016.9 |
| 20260905054521 | 20 | 157 | 0.0 | 3.2 | 0.00 | 0.00 | 0.00 | 45 | 1017.1 |
| 20260905054008 | 21 | 157 | 0.0 | 3.2 | 0.00 | 0.00 | 0.00 | 44 | 1017.1 |
| 20260905053512 | 21 | 157 | 0.0 | 3.2 | 0.00 | 0.00 | 0.00 | 43 | 1017.0 |
| 20260905053028 | 21 | 157 | 0.0 | 3.2 | 0.00 | 0.00 | 0.00 | 41 | 1017.0 |
| 20260905052511 | 22 | 163 | 0.0 | 3.2 | 0.00 | 0.00 | 0.00 | 39 | 1017.0 |
| 20260905052015 | 22 | 239 | 0.0 | 3.2 | 0.00 | 0.00 | 0.00 | 38 | 1016.9 |
| 20260905051525 | 22 | 255 | 0.0 | 3.2 | 0.00 | 0.00 | 0.00 | 36 | 1016.9 |
| 20260905051005 | 22 | 246 | 0.0 | 3.2 | 0.00 | 0.00 | 0.00 | 36 | 1016.9 |
| 20260905050509 | 22 | 289 | 0.0 | 3.2 | 0.00 | 0.00 | 0.00 | 36 | 1017.0 |
| 20260905050019 | 22 | 290 | 0.0 | 3.2 | 0.00 | 0.00 | 0.00 | 37 | 1017.0 |
| 20260905045516 | 22 | 275 | 0.0 | 3.2 | 0.00 | 0.00 | 0.00 | 37 | 1017.1 |
| 20260905045014 | 22 | 329 | 0.0 | 3.2 | 0.00 | 0.00 | 0.00 | 37 | 1017.1 |
| 20260905044527 | 22 | 319 | 0.0 | 3.2 | 0.00 | 0.00 | 0.00 | 37 | 1017.1 |
| 20260905044014 | 22 | 257 | 0.0 | 3.2 | 0.00 | 0.00 | 0.00 | 37 | 1017.0 |
| 20260905043509 | 22 | 252 | 0.0 | 1.6 | 0.00 | 0.00 | 0.00 | 38 | 1016.9 |
| 20260905043014 | 22 | 250 | 0.0 | 3.2 | 0.00 | 0.00 | 0.00 | 36 | 1016.9 |
| 20260905042509 | 23 | 240 | 0.0 | 3.2 | 0.00 | 0.00 | 0.00 | 36 | 1016.9 |
| 20260905042010 | 23 | 240 | 0.0 | 3.2 | 0.00 | 0.00 | 0.00 | 36 | 1016.9 |
| 20260905041527 | 23 | 268 | 0.0 | 3.2 | 0.00 | 0.00 | 0.00 | 37 | 1016.9 |
| 20260905041013 | 23 | 269 | 0.0 | 3.2 | 0.00 | 0.00 | 0.00 | 36 | 1017.0 |
| 20260905040513 | 23 | 269 | 0.0 | 3.2 | 0.00 | 0.00 | 0.00 | 37 | 1017.1 |
| 20260905040030 | 23 | 267 | 0.0 | 3.2 | 0.00 | 0.00 | 0.00 | 36 | 1017.1 |
| 20260905035506 | 23 | 337 | 0.0 | 3.2 | 0.00 | 0.00 | 0.00 | 37 | 1017.2 |
| 20260905035006 | 24 | 335 | 0.0 | 3.2 | 0.00 | 0.00 | 0.00 | 34 | 1017.1 |
| 20260905034516 | 24 | 335 | 0.0 | 3.2 | 0.00 | 0.00 | 0.00 | 36 | 1017.2 |
| 20260905034010 | 24 | 335 | 0.0 | 0.0 | 0.00 | 0.00 | 0.00 | 34 | 1017.2 |
| 20260905033511 | 25 | 335 | 0.0 | 3.2 | 0.00 | 0.00 | 0.00 | 35 | 1017.2 |
| 20260905033026 | 25 | 335 | 0.0 | 3.2 | 0.00 | 0.00 | 0.00 | 34 | 1017.2 |
| 20260905032513 | 25 | 67 | 0.0 | 3.2 | 0.00 | 0.00 | 0.00 | 32 | 1017.1 |
| 20260905032013 | 26 | 65 | 0.0 | 3.2 | 0.00 | 0.00 | 0.00 | 34 | 1017.1 |
| 20260905031515 | 26 | 67 | 0.0 | 3.2 | 0.00 | 0.00 | 0.00 | 32 | 1017.1 |
| 20260905031010 | 26 | 316 | 0.0 | 6.4 | 0.00 | 0.00 | 0.00 | 31 | 1017.0 |
| 20260905030510 | 26 | 300 | 1.6 | 6.4 | 0.00 | 0.00 | 0.00 | 30 | 1016.9 |
| 20260905030021 | 26 | 343 | 1.6 | 6.4 | 0.00 | 0.00 | 0.00 | 31 | 1016.9 |
| 20260905025511 | 26 | 9 | 0.0 | 3.2 | 0.00 | 0.00 | 0.00 | 31 | 1016.9 |
| 20260905025016 | 26 | 9 | 0.0 | 1.6 | 0.00 | 0.00 | 0.00 | 32 | 1016.9 |
| 20260905024553 | 26 | 9 | 0.0 | 3.2 | 0.00 | 0.00 | 0.00 | 34 | 1016.8 |
| 20260905024013 | 26 | 5 | 0.0 | 3.2 | 0.00 | 0.00 | 0.00 | 34 | 1016.7 |
| 20260905023508 | 26 | 110 | 0.0 | 3.2 | 0.00 | 0.00 | 0.00 | 36 | 1016.6 |
| 20260905023019 | 25 | 352 | 0.0 | 3.2 | 0.00 | 0.00 | 0.00 | 35 | 1016.4 |
| 20260905022508 | 25 | 212 | 0.0 | 3.2 | 0.00 | 0.00 | 0.00 | 36 | 1016.3 |
| 20260905022012 | 25 | 243 | 0.0 | 3.2 | 0.00 | 0.00 | 0.00 | 35 | 1016.3 |
| 20260905021528 | 25 | 109 | 0.0 | 3.2 | 0.00 | 0.00 | 0.00 | 37 | 1016.2 |
| 20260905021013 | 25 | 269 | 0.0 | 3.2 | 0.00 | 0.00 | 0.00 | 35 | 1016.1 |
| 20260905020514 | 25 | 259 | 0.0 | 3.2 | 0.00 | 0.00 | 0.00 | 35 | 1016.1 |
| 20260905020033 | 25 | 110 | 0.0 | 3.2 | 0.00 | 0.00 | 0.00 | 37 | 1016.1 |
| 20260905015507 | 26 | 340 | 0.0 | 3.2 | 0.00 | 0.00 | 0.00 | 36 | 1015.9 |
| 20260905015008 | 26 | 232 | 1.6 | 3.2 | 0.00 | 0.00 | 0.00 | 35 | 1015.9 |
| 20260905014518 | 26 | 119 | 0.0 | 3.2 | 0.00 | 0.00 | 0.00 | 34 | 1015.9 |
| 20260905014015 | 27 | 119 | 0.0 | 3.2 | 0.00 | 0.00 | 0.00 | 34 | 1015.8 |
| 20260905013515 | 27 | 119 | 0.0 | 3.2 | 0.00 | 0.00 | 0.00 | 33 | 1015.7 |
| 20260905013027 | 27 | 119 | 0.0 | 0.0 | 0.00 | 0.00 | 0.00 | 32 | 1015.7 |
| 20260905012517 | 28 | 119 | 0.0 | 1.6 | 0.00 | 0.00 | 0.00 | 31 | 1015.7 |
| 20260905012017 | 28 | 119 | 0.0 | 1.6 | 0.00 | 0.00 | 0.00 | 30 | 1015.6 |
| 20260905011512 | 28 | 119 | 0.0 | 1.6 | 0.00 | 0.00 | 0.00 | 30 | 1015.6 |
| 20260905011009 | 29 | 119 | 0.0 | 0.0 | 0.00 | 0.00 | 0.00 | 30 | 1015.6 |
| 20260905010512 | 29 | 119 | 0.0 | 0.0 | 0.00 | 0.00 | 0.00 | 29 | 1015.6 |
| 20260905010023 | 30 | 119 | 0.0 | 0.0 | 0.00 | 0.00 | 0.00 | 28 | 1015.6 |
| 20260905005515 | 30 | 119 | 0.0 | 3.2 | 0.00 | 0.00 | 0.00 | 27 | 1015.5 |
| 20260905005014 | 30 | 119 | 0.0 | 3.2 | 0.00 | 0.00 | 0.00 | 27 | 1015.5 |
| 20260905004532 | 30 | 119 | 0.0 | 3.2 | 0.00 | 0.00 | 0.00 | 26 | 1015.5 |
| 20260905004016 | 31 | 122 | 0.0 | 3.2 | 0.00 | 0.00 | 0.00 | 26 | 1015.5 |
| 20260905003508 | 31 | 111 | 0.0 | 3.2 | 0.00 | 0.00 | 0.00 | 25 | 1015.5 |
| 20260905003018 | 31 | 95 | 0.0 | 3.2 | 0.00 | 0.00 | 0.00 | 24 | 1015.5 |
| 20260905002503 | 31 | 84 | 0.0 | 4.8 | 0.00 | 0.00 | 0.00 | 24 | 1015.5 |
| 20260905002003 | 32 | 100 | 0.0 | 4.8 | 0.00 | 0.00 | 0.00 | 23 | 1015.4 |
| 20260905001504 | 32 | 92 | 0.0 | 4.8 | 0.00 | 0.00 | 0.00 | 22 | 1015.4 |
| 20260905001004 | 32 | 146 | 0.0 | 4.8 | 0.00 | 0.00 | 0.00 | 23 | 1015.4 |
| 20260905000504 | 32 | 92 | 1.6 | 8.0 | 0.00 | 0.00 | 0.00 | 22 | 1015.4 |
| 20260905000008 | 33 | 85 | 1.6 | 11.3 | 0.00 | 0.00 | 0.00 | 21 | 1015.4 |
| 20260904235510 | 33 | 65 | 3.2 | 11.3 | 0.00 | 0.00 | 0.00 | 20 | 1015.3 |
| 20260904235012 | 33 | 194 | 0.0 | 4.8 | 0.00 | 0.00 | 0.00 | 17 | 1015.2 |
| 20260904234503 | 33 | 40 | 1.6 | 4.8 | 0.00 | 0.00 | 0.00 | 18 | 1015.2 |
| 20260904234003 | 33 | 127 | 0.0 | 4.8 | 0.00 | 0.00 | 0.00 | 18 | 1015.1 |
| 20260904233504 | 33 | 74 | 3.2 | 4.8 | 0.00 | 0.00 | 0.00 | 17 | 1015.1 |
| 20260904233006 | 33 | 24 | 3.2 | 4.8 | 0.00 | 0.00 | 0.00 | 17 | 1015.1 |
| 20260904232506 | 33 | 351 | 1.6 | 6.4 | 0.00 | 0.00 | 0.00 | 17 | 1015.1 |
| 20260904232006 | 34 | 44 | 4.8 | 6.4 | 0.00 | 0.00 | 0.00 | 18 | 1015.0 |
| 20260904231513 | 34 | 69 | 1.6 | 6.4 | 0.00 | 0.00 | 0.00 | 18 | 1015.0 |
| 20260904231009 | 33 | 46 | 0.0 | 4.8 | 0.00 | 0.00 | 0.00 | 19 | 1015.0 |
| 20260904230502 | 33 | 119 | 0.0 | 4.8 | 0.00 | 0.00 | 0.00 | 18 | 1015.0 |
| 20260904230004 | 33 | 52 | 3.2 | 4.8 | 0.00 | 0.00 | 0.00 | 18 | 1015.1 |
| 20260904225502 | 33 | 51 | 1.6 | 3.2 | 0.00 | 0.00 | 0.00 | 18 | 1015.1 |
| 20260904225005 | 33 | 38 | 0.0 | 4.8 | 0.00 | 0.00 | 0.00 | 19 | 1015.2 |
| 20260904224508 | 33 | 59 | 0.0 | 4.8 | 0.00 | 0.00 | 0.00 | 18 | 1015.2 |
| 20260904224008 | 33 | 32 | 1.6 | 8.0 | 0.00 | 0.00 | 0.00 | 18 | 1015.2 |
| 20260904223511 | 34 | 165 | 0.0 | 8.0 | 0.00 | 0.00 | 0.00 | 18 | 1015.2 |
| 20260904223023 | 34 | 120 | 1.6 | 8.0 | 0.00 | 0.00 | 0.00 | 17 | 1015.2 |
| 20260904222507 | 34 | 66 | 3.2 | 8.0 | 0.00 | 0.00 | 0.00 | 17 | 1015.1 |
| 20260904222003 | 35 | 43 | 1.6 | 4.8 | 0.00 | 0.00 | 0.00 | 16 | 1015.1 |
| 20260904221506 | 35 | 93 | 0.0 | 3.2 | 0.00 | 0.00 | 0.00 | 16 | 1015.2 |
| 20260904221006 | 35 | 32 | 1.6 | 6.4 | 0.00 | 0.00 | 0.00 | 16 | 1015.2 |
| 20260904220508 | 35 | 145 | 1.6 | 11.3 | 0.00 | 0.00 | 0.00 | 16 | 1015.2 |
| 20260904220012 | 35 | 196 | 1.6 | 11.3 | 0.00 | 0.00 | 0.00 | 17 | 1015.2 |
| 20260904215511 | 35 | 66 | 1.6 | 6.4 | 0.00 | 0.00 | 0.00 | 16 | 1015.2 |
| 20260904215013 | 35 | 241 | 1.6 | 9.7 | 0.00 | 0.00 | 0.00 | 16 | 1015.2 |
| 20260904214503 | 34 | 158 | 1.6 | 9.7 | 0.00 | 0.00 | 0.00 | 17 | 1015.2 |
| 20260904214003 | 34 | 14 | 1.6 | 9.7 | 0.00 | 0.00 | 0.00 | 17 | 1015.2 |
| 20260904213505 | 34 | 46 | 4.8 | 11.3 | 0.00 | 0.00 | 0.00 | 18 | 1015.2 |
| 20260904213007 | 34 | 61 | 1.6 | 16.1 | 0.00 | 0.00 | 0.00 | 18 | 1015.3 |
| 20260904212506 | 34 | 35 | 8.0 | 16.1 | 0.00 | 0.00 | 0.00 | 17 | 1015.2 |
| 20260904212010 | 34 | 196 | 1.6 | 9.7 | 0.00 | 0.00 | 0.00 | 18 | 1015.3 |
| 20260904211518 | 34 | 53 | 1.6 | 9.7 | 0.00 | 0.00 | 0.00 | 17 | 1015.4 |
| 20260904211013 | 34 | 169 | 3.2 | 14.5 | 0.00 | 0.00 | 0.00 | 18 | 1015.3 |
| 20260904210503 | 34 | 200 | 3.2 | 14.5 | 0.00 | 0.00 | 0.00 | 18 | 1015.4 |
| 20260904210004 | 34 | 113 | 1.6 | 12.9 | 0.00 | 0.00 | 0.00 | 17 | 1015.4 |
| 20260904205504 | 34 | 51 | 4.8 | 11.3 | 0.00 | 0.00 | 0.00 | 17 | 1015.5 |
| 20260904205007 | 34 | 115 | 1.6 | 12.9 | 0.00 | 0.00 | 0.00 | 17 | 1015.6 |
| 20260904204513 | 34 | 132 | 1.6 | 12.9 | 0.00 | 0.00 | 0.00 | 17 | 1015.6 |
| 20260904204009 | 34 | 106 | 3.2 | 17.7 | 0.00 | 0.00 | 0.00 | 17 | 1015.7 |
| 20260904203511 | 34 | 134 | 6.4 | 17.7 | 0.00 | 0.00 | 0.00 | 17 | 1015.7 |
| 20260904203030 | 34 | 140 | 3.2 | 8.0 | 0.00 | 0.00 | 0.00 | 18 | 1015.9 |
| 20260904202503 | 34 | 96 | 1.6 | 16.1 | 0.00 | 0.00 | 0.00 | 18 | 1016.0 |
| 20260904202003 | 34 | 97 | 1.6 | 16.1 | 0.00 | 0.00 | 0.00 | 17 | 1016.1 |
| 20260904201506 | 34 | 146 | 4.8 | 16.1 | 0.00 | 0.00 | 0.00 | 17 | 1016.3 |
| 20260904201008 | 33 | 100 | 3.2 | 14.5 | 0.00 | 0.00 | 0.00 | 17 | 1016.3 |
| 20260904200509 | 33 | 77 | 3.2 | 14.5 | 0.00 | 0.00 | 0.00 | 17 | 1016.3 |